Cleveland Burke, OH

4:25 AM EDT on May 22, 2018 (GMT -0400)
Burke Lakefront

Weather History for KBKL - August, 2012

Change the Weather History Date:

Monday, August 13, 2012

  Actual Average Record
Temperature  
Mean Temperature 72 °F -  
Max Temperature 78 °F 77 °F 95 °F (2002)
Min Temperature 66 °F 65 °F 55 °F (2006)
Cooling Degree Days 6    
Growing Degree Days 22 (Base 50)    
Moisture  
Dew Point 58 °F    
Average Humidity 63    
Maximum Humidity 73    
Minimum Humidity 52    
Precipitation  
Precipitation 0.00 in - - ()
Sea Level Pressure  
Sea Level Pressure 29.98 in    
Wind  
Wind Speed 6 mph (SE)    
Max Wind Speed 8 mph    
Max Gust Speed -    
Visibility 10 miles    
Events      
Averages and records for this station are not official NWS values.
T = Trace of Precipitation, MM = Missing Value Source: NWS Daily Summary

Daily Weather History Graph

Daily Weather History Graph

Search for Another Location

Airport or City:

Astronomy

Aug. 13, 2012 Rise Set
Actual Time 6:33 AM EDT 8:28 PM EDT
Civil Twilight 6:03 AM EDT 8:58 PM EDT
Nautical Twilight 5:27 AM EDT 9:34 PM EDT
Astronomical Twilight 4:47 AM EDT 10:13 PM EDT
Moon 2:34 AM EDT (8/13) 5:40 PM EDT (8/13)
Length of Visible Light 14h 54m
Length of Day
13h 54m
Waning Crescent, 16% of the Moon is Illuminated
Aug 13
Waning Crescent
Aug 17
New
Aug 24
First Quarter
Aug 31
Full
Sep 8
Last Quarter

Hourly Weather History & Observations

Time (EDT) Temp. Dew Point Humidity Pressure Visibility Wind Dir Wind Speed Gust Speed Precip Events Conditions
12:53 AM 68.0 °F 55.9 °F 65% 30.01 in 10.0 mi SSE 4.6 mph - N/A   Clear
1:53 AM 68.0 °F 55.9 °F 65% 30.00 in 10.0 mi South 5.8 mph - N/A   Clear
2:53 AM 68.0 °F 57.0 °F 68% 29.99 in 10.0 mi South 5.8 mph - N/A   Clear
3:53 AM 66.9 °F 55.9 °F 68% 29.99 in 10.0 mi South 6.9 mph - N/A   Clear
4:53 AM 66.9 °F 57.0 °F 70% 29.99 in 10.0 mi South 4.6 mph - N/A   Clear
5:53 AM 66.0 °F 57.0 °F 73% 29.99 in 10.0 mi South 4.6 mph - N/A   Clear
6:53 AM 66.0 °F 57.0 °F 73% 30.01 in 10.0 mi South 5.8 mph - N/A   Clear
7:53 AM 68.0 °F 57.0 °F 68% 30.02 in 10.0 mi South 4.6 mph - N/A   Clear
8:53 AM 70.0 °F 57.0 °F 63% 30.02 in 10.0 mi South 8.1 mph - N/A   Clear
9:53 AM 73.0 °F 57.9 °F 59% 30.00 in 10.0 mi South 5.8 mph - N/A   Clear
10:53 AM 75.9 °F 57.0 °F 52% 30.00 in 10.0 mi West 5.8 mph - N/A   Partly Cloudy
11:53 AM 75.9 °F 57.9 °F 54% 29.99 in 10.0 mi NW 5.8 mph - N/A   Scattered Clouds
12:53 PM 75.9 °F 57.0 °F 52% 29.98 in 10.0 mi NW 5.8 mph - N/A   Clear
1:53 PM 77.0 °F 59.0 °F 54% 29.96 in 10.0 mi North 5.8 mph - N/A   Clear
2:53 PM 77.0 °F 60.1 °F 56% 29.96 in 10.0 mi North 5.8 mph - N/A   Overcast
3:53 PM 75.0 °F 60.1 °F 60% 29.95 in 10.0 mi North 5.8 mph - N/A   Mostly Cloudy
4:53 PM 73.9 °F 60.1 °F 62% 29.95 in 10.0 mi North 5.8 mph - N/A   Overcast
5:53 PM 73.0 °F 60.1 °F 64% 29.95 in 10.0 mi NNE 6.9 mph - N/A   Overcast
6:53 PM 73.0 °F 57.9 °F 59% 29.96 in 10.0 mi NNW 8.1 mph - N/A   Overcast
7:53 PM 71.1 °F 59.0 °F 66% 29.96 in 10.0 mi NNE 6.9 mph - N/A   Overcast
8:53 PM 71.1 °F 57.9 °F 63% 29.96 in 10.0 mi ENE 6.9 mph - N/A   Overcast
9:53 PM 70.0 °F 57.0 °F 63% 29.96 in 10.0 mi East 8.1 mph - 0.00 in   Overcast
10:53 PM 69.1 °F 59.0 °F 70% 29.95 in 10.0 mi ESE 5.8 mph - N/A   Overcast
11:53 PM 68.0 °F 59.0 °F 73% 29.94 in 10.0 mi ESE 4.6 mph - N/A   Partly Cloudy